Location: Medlow Airstrip Trail, Medlow Bath NSW 2780, Australia
(33.6682°S, 150.3233°E)
Time: 22:23:52
(UTC+10:00)

LightSail 2 - Visible Passes

Search period start: 03 August 2020 00:00
Search period end: 13 August 2020 00:00
Orbit: 698 x 714 km, 24.0° (Epoch: 02 August)

Date Brightness Start Highest point End Pass type
(mag) Time Alt. Az. Time Alt. Az. Time Alt. Az.
03 Aug 7.6 06:06:32 10° NNW 06:09:31 16° NNE 06:12:31 10° NE visible
04 Aug 7.7 05:07:27 10° N 05:09:26 12° NNE 05:11:24 10° NE visible
05 Aug 7.2 05:50:17 10° NW 05:54:00 20° NNE 05:57:43 10° ENE visible
06 Aug 7.3 04:51:36 13° NNW 04:53:52 17° NNE 04:57:06 10° NE visible
07 Aug 7.8 03:55:13 12° NE 03:55:13 12° NE 03:56:10 10° NE visible
07 Aug 6.9 05:34:22 10° NW 05:38:28 24° N 05:42:33 10° ENE visible
08 Aug 6.9 04:37:33 21° N 04:38:17 21° NNE 04:42:08 10° ENE visible
09 Aug 7.9 03:41:01 12° NE 03:41:01 12° NE 03:41:34 10° ENE visible
09 Aug 6.7 05:19:50 16° NW 05:22:54 27° N 05:27:11 10° ENE visible
10 Aug 6.8 04:23:15 25° NNE 04:23:15 25° NNE 04:26:51 10° ENE visible
10 Aug 6.7 06:03:17 10° WNW 06:07:32 26° N 06:11:46 10° NE visible
11 Aug 6.5 05:05:25 22° NW 05:07:18 27° N 05:11:37 10° ENE visible
12 Aug 7.0 04:08:46 23° NNE 04:08:46 23° NNE 04:11:23 10° ENE visible
12 Aug 6.8 05:47:50 10° WNW 05:51:54 24° N 05:55:56 10° NE visible
